Time,TemperatureF,DewpointF,PressureIn,WindDirection,WindDirectionDegrees,WindSpeedMPH,WindSpeedGustMPH,Humidity,HourlyPrecipIn,Conditions,Clouds,dailyrainin,SoftwareType,DateUTC
2013-02-20 00:02:00,31.5,18.0,25.56,ESE,112,6.1,17.3,53,0.00,,,0.00,Rainwise IP-100,2013-02-20 07:02:00,
2013-02-20 00:07:00,30.8,16.0,25.56,ESE,112,7.9,15.6,54,0.00,,,0.00,Rainwise IP-100,2013-02-20 07:07:00,
2013-02-20 00:12:00,30.3,18.0,25.55,SE,135,8.4,18.9,56,0.00,,,0.00,Rainwise IP-100,2013-02-20 07:12:00,
2013-02-20 00:18:00,30.0,18.0,25.56,SSE,157,10.7,21.0,56,0.00,,,0.00,Rainwise IP-100,2013-02-20 07:18:00,
2013-02-20 00:23:00,29.8,18.0,25.55,ESE,112,6.8,16.1,57,0.00,,,0.00,Rainwise IP-100,2013-02-20 07:23:00,
2013-02-20 00:28:00,29.4,16.0,25.55,ESE,112,8.6,15.4,57,0.00,,,0.00,Rainwise IP-100,2013-02-20 07:28:00,
2013-02-20 00:33:00,29.1,16.0,25.56,ESE,112,11.0,15.2,58,0.00,,,0.00,Rainwise IP-100,2013-02-20 07:33:00,
2013-02-20 00:38:00,28.8,16.0,25.56,ESE,112,8.2,16.3,59,0.00,,,0.00,Rainwise IP-100,2013-02-20 07:38:00,
2013-02-20 00:43:00,28.7,18.0,25.55,ESE,112,11.2,14.5,60,0.00,,,0.00,Rainwise IP-100,2013-02-20 07:43:00,
2013-02-20 00:48:00,28.6,18.0,25.56,SE,135,4.2,15.4,60,0.00,,,0.00,Rainwise IP-100,2013-02-20 07:48:00,
2013-02-20 00:53:00,28.5,18.0,25.56,ESE,112,9.8,16.1,60,0.00,,,0.00,Rainwise IP-100,2013-02-20 07:53:00,
2013-02-20 00:58:00,28.4,16.0,25.56,SE,135,7.0,13.1,61,0.00,,,0.00,Rainwise IP-100,2013-02-20 07:58:00,
2013-02-20 01:05:00,28.3,16.0,25.56,SE,135,7.5,17.0,62,0.00,,,0.00,Rainwise IP-100,2013-02-20 08:05:00,
2013-02-20 01:10:00,28.2,16.0,25.56,ESE,112,12.6,17.3,62,0.00,,,0.00,Rainwise IP-100,2013-02-20 08:10:00,
2013-02-20 01:15:00,28.1,16.0,25.55,SE,135,13.5,15.6,62,0.00,,,0.00,Rainwise IP-100,2013-02-20 08:15:00,
2013-02-20 01:20:00,27.8,16.0,25.56,SE,135,7.0,16.1,63,0.00,,,0.00,Rainwise IP-100,2013-02-20 08:20:00,
2013-02-20 01:25:00,27.4,18.0,25.56,ESE,112,4.4,16.3,64,0.00,,,0.00,Rainwise IP-100,2013-02-20 08:25:00,
2013-02-20 01:30:00,27.1,18.0,25.55,SE,135,10.0,16.1,65,0.00,,,0.00,Rainwise IP-100,2013-02-20 08:30:00,
2013-02-20 01:35:00,26.7,18.0,25.55,ESE,112,10.7,15.9,66,0.00,,,0.00,Rainwise IP-100,2013-02-20 08:35:00,
2013-02-20 01:40:00,26.5,18.0,25.54,South,180,5.8,14.5,66,0.00,,,0.00,Rainwise IP-100,2013-02-20 08:40:00,
2013-02-20 01:45:00,26.2,16.0,25.54,SSE,157,6.3,14.5,67,0.00,,,0.00,Rainwise IP-100,2013-02-20 08:45:00,
2013-02-20 01:50:00,26.0,18.0,25.54,ESE,112,10.3,16.6,68,0.00,,,0.00,Rainwise IP-100,2013-02-20 08:50:00,
2013-02-20 01:55:00,25.9,18.0,25.53,SSE,157,5.6,14.2,69,0.00,,,0.00,Rainwise IP-100,2013-02-20 08:55:00,
2013-02-20 02:00:00,25.7,18.0,25.53,SE,135,10.0,15.6,70,0.00,,,0.00,Rainwise IP-100,2013-02-20 09:00:00,
2013-02-20 02:05:00,25.6,18.0,25.53,East,90,10.5,16.1,70,0.00,,,0.00,Rainwise IP-100,2013-02-20 09:05:00,
2013-02-20 02:10:00,25.5,18.0,25.53,SSE,157,5.8,16.6,71,0.00,,,0.00,Rainwise IP-100,2013-02-20 09:10:00,
2013-02-20 02:15:00,25.4,18.0,25.52,ESE,112,6.8,15.4,71,0.00,,,0.00,Rainwise IP-100,2013-02-20 09:15:00,
2013-02-20 02:20:00,25.2,18.0,25.52,SE,135,9.3,14.9,72,0.00,,,0.00,Rainwise IP-100,2013-02-20 09:20:00,
2013-02-20 02:25:00,25.0,18.0,25.52,SSE,157,6.8,16.3,73,0.00,,,0.00,Rainwise IP-100,2013-02-20 09:25:00,
2013-02-20 02:30:00,24.9,18.0,25.52,ESE,112,7.0,16.6,73,0.00,,,0.00,Rainwise IP-100,2013-02-20 09:30:00,
2013-02-20 02:35:00,24.8,18.0,25.52,SE,135,7.9,18.7,74,0.00,,,0.00,Rainwise IP-100,2013-02-20 09:35:00,
2013-02-20 02:40:00,24.7,18.0,25.52,SSE,157,16.8,16.8,74,0.00,,,0.00,Rainwise IP-100,2013-02-20 09:40:00,
2013-02-20 02:45:00,24.6,18.0,25.52,SE,135,7.5,19.1,74,0.00,,,0.00,Rainwise IP-100,2013-02-20 09:45:00,
2013-02-20 02:50:00,24.6,21.0,25.52,SE,135,10.7,15.4,75,0.00,,,0.00,Rainwise IP-100,2013-02-20 09:50:00,
2013-02-20 02:56:00,24.6,21.0,25.51,ESE,112,9.8,16.8,75,0.00,,,0.00,Rainwise IP-100,2013-02-20 09:56:00,
2013-02-20 03:01:00,24.6,21.0,25.51,SE,135,7.5,21.5,75,0.00,,,0.00,Rainwise IP-100,2013-02-20 10:01:00,
2013-02-20 03:06:00,24.6,21.0,25.51,SSE,157,12.8,16.1,75,0.00,,,0.00,Rainwise IP-100,2013-02-20 10:06:00,
2013-02-20 03:11:00,24.5,21.0,25.50,SSE,157,5.1,20.1,75,0.00,,,0.00,Rainwise IP-100,2013-02-20 10:11:00,
2013-02-20 03:16:00,24.4,18.0,25.50,SE,135,12.6,18.9,76,0.00,,,0.00,Rainwise IP-100,2013-02-20 10:16:00,
2013-02-20 03:21:00,24.4,18.0,25.50,SSE,157,9.1,19.6,76,0.00,,,0.00,Rainwise IP-100,2013-02-20 10:21:00,
2013-02-20 03:26:00,24.3,18.0,25.50,SSE,157,13.5,17.3,76,0.00,,,0.00,Rainwise IP-100,2013-02-20 10:26:00,
2013-02-20 03:31:00,24.2,18.0,25.50,SSE,157,11.2,15.9,76,0.00,,,0.00,Rainwise IP-100,2013-02-20 10:31:00,
2013-02-20 03:36:00,24.2,18.0,25.50,SSE,157,12.4,16.8,76,0.00,,,0.00,Rainwise IP-100,2013-02-20 10:36:00,
2013-02-20 03:41:00,24.2,18.0,25.49,ESE,112,5.8,18.4,76,0.00,,,0.00,Rainwise IP-100,2013-02-20 10:41:00,
2013-02-20 03:46:00,24.3,18.0,25.49,SE,135,10.3,17.5,77,0.00,,,0.00,Rainwise IP-100,2013-02-20 10:46:00,
2013-02-20 03:51:00,24.3,18.0,25.50,SSE,157,6.3,15.9,77,0.00,,,0.00,Rainwise IP-100,2013-02-20 10:51:00,
2013-02-20 03:56:00,24.4,18.0,25.50,SE,135,11.7,17.5,77,0.00,,,0.00,Rainwise IP-100,2013-02-20 10:56:00,
2013-02-20 04:01:00,24.5,21.0,25.49,SSE,157,7.2,15.6,77,0.00,,,0.00,Rainwise IP-100,2013-02-20 11:01:00,
2013-02-20 04:06:00,24.8,21.0,25.50,SSE,157,4.9,20.1,76,0.00,,,0.00,Rainwise IP-100,2013-02-20 11:06:00,
2013-02-20 04:11:00,24.9,21.0,25.49,ESE,112,7.0,20.8,76,0.00,,,0.00,Rainwise IP-100,2013-02-20 11:11:00,
2013-02-20 04:16:00,25.1,21.0,25.49,South,180,7.7,20.1,76,0.00,,,0.00,Rainwise IP-100,2013-02-20 11:16:00,
2013-02-20 04:21:00,25.2,21.0,25.49,ESE,112,7.5,18.9,76,0.00,,,0.00,Rainwise IP-100,2013-02-20 11:21:00,
2013-02-20 04:26:00,25.4,21.0,25.49,SE,135,15.4,22.4,76,0.00,,,0.00,Rainwise IP-100,2013-02-20 11:26:00,
2013-02-20 04:31:00,25.7,21.0,25.49,ESE,112,14.7,24.2,76,0.00,,,0.00,Rainwise IP-100,2013-02-20 11:31:00,
2013-02-20 04:36:00,25.9,21.0,25.49,SSE,157,11.0,19.8,76,0.00,,,0.00,Rainwise IP-100,2013-02-20 11:36:00,
2013-02-20 04:41:00,26.2,21.0,25.49,SSE,157,5.4,22.9,77,0.00,,,0.00,Rainwise IP-100,2013-02-20 11:41:00,
2013-02-20 04:46:00,26.4,21.0,25.49,SSE,157,4.0,21.0,77,0.00,,,0.00,Rainwise IP-100,2013-02-20 11:46:00,
2013-02-20 04:51:00,26.7,23.0,25.49,SE,135,10.5,15.9,77,0.00,,,0.00,Rainwise IP-100,2013-02-20 11:51:00,
2013-02-20 04:56:00,27.0,23.0,25.49,SSE,157,11.4,16.6,78,0.00,,,0.00,Rainwise IP-100,2013-02-20 11:56:00,
2013-02-20 05:01:00,27.4,23.0,25.49,SE,135,15.6,18.2,78,0.00,,,0.00,Rainwise IP-100,2013-02-20 12:01:00,
2013-02-20 05:06:00,27.8,23.0,25.49,SSE,157,7.2,17.5,79,0.00,,,0.00,Rainwise IP-100,2013-02-20 12:06:00,
2013-02-20 05:11:00,28.3,23.0,25.48,SE,135,7.7,18.4,79,0.00,,,0.00,Rainwise IP-100,2013-02-20 12:11:00,
2013-02-20 05:16:00,28.7,24.0,25.50,SE,135,11.4,19.1,80,0.00,,,0.00,Rainwise IP-100,2013-02-20 12:16:00,
2013-02-20 05:21:00,29.0,24.0,25.50,SE,135,8.6,20.1,80,0.00,,,0.00,Rainwise IP-100,2013-02-20 12:21:00,
2013-02-20 05:26:00,29.4,24.0,25.49,SSE,157,12.8,19.6,81,0.00,,,0.00,Rainwise IP-100,2013-02-20 12:26:00,
2013-02-20 05:31:00,29.8,26.0,25.49,SE,135,11.7,21.0,83,0.00,,,0.00,Rainwise IP-100,2013-02-20 12:31:00,
2013-02-20 05:36:00,30.1,26.0,25.50,SSE,157,6.1,29.4,84,0.00,,,0.00,Rainwise IP-100,2013-02-20 12:36:00,
2013-02-20 05:41:00,30.2,26.0,25.50,SSE,157,15.4,24.2,85,0.00,,,0.00,Rainwise IP-100,2013-02-20 12:41:00,
2013-02-20 05:46:00,30.2,26.0,25.50,SE,135,12.8,21.7,85,0.00,,,0.00,Rainwise IP-100,2013-02-20 12:46:00,
2013-02-20 05:51:00,30.1,28.0,25.50,SSE,157,8.2,22.2,86,0.00,,,0.00,Rainwise IP-100,2013-02-20 12:51:00,
2013-02-20 05:56:00,30.0,28.0,25.50,SSE,157,12.8,24.2,87,0.00,,,0.00,Rainwise IP-100,2013-02-20 12:56:00,
2013-02-20 06:01:00,29.8,28.0,25.50,SSE,157,11.2,23.6,88,0.00,,,0.00,Rainwise IP-100,2013-02-20 13:01:00,
2013-02-20 06:06:00,29.7,28.0,25.50,SSE,157,15.6,24.0,89,0.00,,,0.00,Rainwise IP-100,2013-02-20 13:06:00,
2013-02-20 06:11:00,29.5,28.0,25.49,SE,135,10.7,24.2,89,0.00,,,0.00,Rainwise IP-100,2013-02-20 13:11:00,
2013-02-20 06:16:00,29.4,26.0,25.49,ESE,112,8.6,24.5,90,0.00,,,0.00,Rainwise IP-100,2013-02-20 13:16:00,
2013-02-20 06:21:00,29.2,28.0,25.49,SE,135,11.0,23.1,91,0.00,,,0.00,Rainwise IP-100,2013-02-20 13:21:00,
2013-02-20 06:26:00,29.2,28.0,25.49,SSE,157,16.6,23.8,91,0.00,,,0.00,Rainwise IP-100,2013-02-20 13:26:00,
2013-02-20 06:31:00,29.1,28.0,25.49,ESE,112,10.7,21.2,92,0.00,,,0.00,Rainwise IP-100,2013-02-20 13:31:00,
2013-02-20 06:36:00,29.1,28.0,25.50,SSE,157,18.9,22.2,92,0.00,,,0.00,Rainwise IP-100,2013-02-20 13:36:00,
2013-02-20 06:41:00,29.1,28.0,25.50,SSE,157,8.4,23.3,93,0.00,,,0.00,Rainwise IP-100,2013-02-20 13:41:00,
2013-02-20 06:46:00,29.0,28.0,25.50,ESE,112,9.1,21.5,93,0.00,,,0.00,Rainwise IP-100,2013-02-20 13:46:00,
2013-02-20 06:51:00,28.9,28.0,25.50,SSE,157,10.3,22.6,93,0.00,,,0.00,Rainwise IP-100,2013-02-20 13:51:00,
2013-02-20 06:56:00,28.9,28.0,25.50,SSW,202,11.0,22.4,94,0.00,,,0.00,Rainwise IP-100,2013-02-20 13:56:00,
2013-02-20 07:01:00,28.8,28.0,25.49,ESE,112,8.9,21.7,94,0.00,,,0.00,Rainwise IP-100,2013-02-20 14:01:00,
2013-02-20 07:06:00,28.9,28.0,25.50,North,360,9.3,21.2,95,0.00,,,0.00,Rainwise IP-100,2013-02-20 14:06:00,
2013-02-20 07:11:00,28.8,28.0,25.50,SSE,157,16.1,23.3,95,0.00,,,0.00,Rainwise IP-100,2013-02-20 14:11:00,
2013-02-20 07:16:00,28.8,28.0,25.50,SSE,157,12.6,21.9,95,0.00,,,0.00,Rainwise IP-100,2013-02-20 14:16:00,
2013-02-20 07:21:00,28.8,28.0,25.50,SSE,157,4.4,23.1,95,0.00,,,0.00,Rainwise IP-100,2013-02-20 14:21:00,
2013-02-20 07:26:00,28.8,28.0,25.50,North,360,11.2,18.7,95,0.00,,,0.00,Rainwise IP-100,2013-02-20 14:26:00,
2013-02-20 07:31:00,28.7,28.0,25.50,North,360,15.2,23.3,96,0.00,,,0.00,Rainwise IP-100,2013-02-20 14:31:00,
2013-02-20 07:36:00,28.7,28.0,25.49,SSE,157,10.7,18.7,96,0.00,,,0.00,Rainwise IP-100,2013-02-20 14:36:00,
2013-02-20 07:41:00,28.8,28.0,25.49,SE,135,11.0,22.4,95,0.00,,,0.00,Rainwise IP-100,2013-02-20 14:41:00,
2013-02-20 07:46:00,28.8,28.0,25.50,SSE,157,13.5,19.1,95,0.00,,,0.00,Rainwise IP-100,2013-02-20 14:46:00,
2013-02-20 07:51:00,28.9,28.0,25.50,SSE,157,12.1,19.1,94,0.00,,,0.00,Rainwise IP-100,2013-02-20 14:51:00,
2013-02-20 07:56:00,28.9,28.0,25.50,North,360,8.2,18.0,94,0.00,,,0.00,Rainwise IP-100,2013-02-20 14:56:00,
2013-02-20 08:01:00,28.9,28.0,25.50,SSE,157,12.6,20.1,94,0.00,,,0.00,Rainwise IP-100,2013-02-20 15:01:00,
2013-02-20 08:06:00,28.9,28.0,25.50,SSE,157,12.4,22.9,94,0.00,,,0.00,Rainwise IP-100,2013-02-20 15:06:00,
2013-02-20 08:11:00,28.9,28.0,25.50,SE,135,7.5,22.2,93,0.00,,,0.00,Rainwise IP-100,2013-02-20 15:11:00,
2013-02-20 08:16:00,28.7,28.0,25.49,East,90,9.8,19.6,93,0.00,,,0.00,Rainwise IP-100,2013-02-20 15:16:00,
2013-02-20 08:21:00,28.6,28.0,25.49,SE,135,18.2,25.6,93,0.00,,,0.00,Rainwise IP-100,2013-02-20 15:21:00,
2013-02-20 08:26:00,28.5,28.0,25.50,SE,135,10.0,27.3,93,0.00,,,0.00,Rainwise IP-100,2013-02-20 15:26:00,
2013-02-20 08:31:00,28.3,26.0,25.49,South,180,10.7,27.7,93,0.00,,,0.00,Rainwise IP-100,2013-02-20 15:31:00,
2013-02-20 08:36:00,28.2,26.0,25.49,SE,135,15.9,21.7,93,0.00,,,0.00,Rainwise IP-100,2013-02-20 15:36:00,
2013-02-20 08:41:00,28.1,26.0,25.49,ESE,112,12.4,24.2,93,0.00,,,0.00,Rainwise IP-100,2013-02-20 15:41:00,
2013-02-20 08:46:00,28.1,26.0,25.49,SSE,157,9.3,18.4,93,0.00,,,0.00,Rainwise IP-100,2013-02-20 15:46:00,
2013-02-20 08:51:00,28.0,26.0,25.49,SSE,157,11.7,26.1,92,0.00,,,0.00,Rainwise IP-100,2013-02-20 15:51:00,
2013-02-20 08:56:00,28.0,26.0,25.48,ESE,112,21.7,27.7,92,0.00,,,0.00,Rainwise IP-100,2013-02-20 15:56:00,
2013-02-20 09:01:00,28.0,26.0,25.49,SE,135,8.6,25.4,92,0.00,,,0.00,Rainwise IP-100,2013-02-20 16:01:00,
2013-02-20 09:06:00,27.9,26.0,25.48,SE,135,15.4,25.2,92,0.00,,,0.00,Rainwise IP-100,2013-02-20 16:06:00,
2013-02-20 09:11:00,27.7,26.0,25.48,ESE,112,11.9,21.9,92,0.00,,,0.00,Rainwise IP-100,2013-02-20 16:11:00,
2013-02-20 09:16:00,27.5,26.0,25.48,SE,135,12.6,22.9,93,0.00,,,0.00,Rainwise IP-100,2013-02-20 16:16:00,
2013-02-20 09:21:00,27.4,26.0,25.48,ESE,112,7.2,23.8,93,0.00,,,0.00,Rainwise IP-100,2013-02-20 16:21:00,
2013-02-20 09:26:00,27.4,26.0,25.48,SE,135,15.2,23.8,93,0.00,,,0.00,Rainwise IP-100,2013-02-20 16:26:00,
2013-02-20 09:31:00,27.4,26.0,25.48,SSE,157,7.0,23.8,93,0.00,,,0.00,Rainwise IP-100,2013-02-20 16:31:00,
2013-02-20 09:36:00,27.3,26.0,25.48,ESE,112,15.2,21.5,93,0.00,,,0.00,Rainwise IP-100,2013-02-20 16:36:00,
2013-02-20 09:41:00,27.2,26.0,25.48,SE,135,14.5,23.8,93,0.00,,,0.00,Rainwise IP-100,2013-02-20 16:41:00,
2013-02-20 09:46:00,27.2,26.0,25.48,ESE,112,7.7,24.5,93,0.00,,,0.00,Rainwise IP-100,2013-02-20 16:46:00,
2013-02-20 09:51:00,27.0,26.0,25.48,ESE,112,20.3,26.1,93,0.00,,,0.00,Rainwise IP-100,2013-02-20 16:51:00,
2013-02-20 09:56:00,27.0,26.0,25.48,ESE,112,9.6,23.1,93,0.00,,,0.00,Rainwise IP-100,2013-02-20 16:56:00,
2013-02-20 10:01:00,27.1,26.0,25.48,ESE,112,8.4,25.4,94,0.00,,,0.00,Rainwise IP-100,2013-02-20 17:01:00,
2013-02-20 10:06:00,27.1,26.0,25.48,ESE,112,13.8,21.9,93,0.00,,,0.00,Rainwise IP-100,2013-02-20 17:06:00,
2013-02-20 10:11:00,27.0,26.0,25.47,SSE,157,14.2,21.0,93,0.00,,,0.00,Rainwise IP-100,2013-02-20 17:11:00,
2013-02-20 10:16:00,27.1,26.0,25.46,ESE,112,20.5,20.5,94,0.00,,,0.00,Rainwise IP-100,2013-02-20 17:16:00,
2013-02-20 10:21:00,27.3,26.0,25.48,ESE,112,10.7,21.2,94,0.00,,,0.00,Rainwise IP-100,2013-02-20 17:21:00,
2013-02-20 10:26:00,27.3,26.0,25.48,SSE,157,7.5,21.0,94,0.00,,,0.00,Rainwise IP-100,2013-02-20 17:26:00,
2013-02-20 10:31:00,27.3,26.0,25.47,SE,135,11.4,20.5,94,0.00,,,0.00,Rainwise IP-100,2013-02-20 17:31:00,
2013-02-20 10:36:00,27.4,26.0,25.47,ESE,112,10.0,20.1,94,0.00,,,0.00,Rainwise IP-100,2013-02-20 17:36:00,
2013-02-20 10:41:00,27.5,26.0,25.47,East,90,18.2,18.2,94,0.00,,,0.00,Rainwise IP-100,2013-02-20 17:41:00,
2013-02-20 10:46:00,27.7,26.0,25.48,SSE,157,8.9,21.5,94,0.00,,,0.00,Rainwise IP-100,2013-02-20 17:46:00,
2013-02-20 10:51:00,27.8,26.0,25.47,ESE,112,9.3,19.8,94,0.00,,,0.00,Rainwise IP-100,2013-02-20 17:51:00,
2013-02-20 10:56:00,27.9,26.0,25.47,SE,135,11.7,18.4,94,0.00,,,0.00,Rainwise IP-100,2013-02-20 17:56:00,
2013-02-20 11:01:00,27.9,26.0,25.47,ESE,112,8.9,21.0,95,0.00,,,0.00,Rainwise IP-100,2013-02-20 18:01:00,
2013-02-20 11:06:00,27.9,26.0,25.46,SE,135,17.3,21.9,95,0.00,,,0.00,Rainwise IP-100,2013-02-20 18:06:00,
2013-02-20 11:11:00,27.9,26.0,25.46,ESE,112,12.6,20.3,95,0.00,,,0.00,Rainwise IP-100,2013-02-20 18:11:00,
2013-02-20 11:16:00,27.9,26.0,25.46,ESE,112,10.7,24.2,95,0.00,,,0.00,Rainwise IP-100,2013-02-20 18:16:00,
2013-02-20 11:21:00,27.9,26.0,25.46,ESE,112,7.2,21.9,95,0.00,,,0.00,Rainwise IP-100,2013-02-20 18:21:00,
2013-02-20 11:26:00,27.9,26.0,25.45,East,90,11.0,18.0,95,0.00,,,0.00,Rainwise IP-100,2013-02-20 18:26:00,
2013-02-20 11:32:00,27.8,26.0,25.45,ENE,67,10.0,17.0,95,0.00,,,0.00,Rainwise IP-100,2013-02-20 18:32:00,
2013-02-20 11:37:00,27.8,26.0,25.44,ESE,112,11.0,20.5,95,0.00,,,0.00,Rainwise IP-100,2013-02-20 18:37:00,
2013-02-20 11:42:00,27.8,26.0,25.44,SE,135,7.0,19.4,96,0.00,,,0.00,Rainwise IP-100,2013-02-20 18:42:00,
2013-02-20 11:47:00,27.9,26.0,25.44,ENE,67,6.5,21.7,96,0.00,,,0.00,Rainwise IP-100,2013-02-20 18:47:00,
2013-02-20 11:52:00,28.2,26.0,25.44,SE,135,11.7,18.7,96,0.00,,,0.00,Rainwise IP-100,2013-02-20 18:52:00,
2013-02-20 11:57:00,28.4,26.0,25.44,East,90,16.8,17.5,96,0.00,,,0.00,Rainwise IP-100,2013-02-20 18:57:00,
2013-02-20 12:02:00,28.6,28.0,25.44,ESE,112,8.2,20.1,95,0.00,,,0.00,Rainwise IP-100,2013-02-20 19:02:00,
2013-02-20 12:07:00,28.7,28.0,25.43,ESE,112,10.3,18.9,95,0.00,,,0.00,Rainwise IP-100,2013-02-20 19:07:00,
2013-02-20 12:12:00,28.8,28.0,25.43,SE,135,11.0,18.9,95,0.00,,,0.00,Rainwise IP-100,2013-02-20 19:12:00,
2013-02-20 12:17:00,28.7,28.0,25.42,SSE,157,3.5,17.7,95,0.00,,,0.00,Rainwise IP-100,2013-02-20 19:17:00,
2013-02-20 12:22:00,28.6,28.0,25.42,SE,135,7.9,18.2,96,0.00,,,0.00,Rainwise IP-100,2013-02-20 19:22:00,
2013-02-20 12:27:00,28.5,28.0,25.42,ESE,112,13.1,20.3,96,0.00,,,0.00,Rainwise IP-100,2013-02-20 19:27:00,
2013-02-20 12:32:00,28.4,26.0,25.41,SE,135,12.8,20.5,96,0.00,,,0.00,Rainwise IP-100,2013-02-20 19:32:00,
2013-02-20 12:37:00,28.4,28.0,25.42,ESE,112,18.4,18.9,97,0.00,,,0.00,Rainwise IP-100,2013-02-20 19:37:00,
2013-02-20 12:42:00,28.6,29.0,25.41,ESE,112,15.2,20.3,97,0.00,,,0.00,Rainwise IP-100,2013-02-20 19:42:00,
2013-02-20 12:47:00,28.9,29.0,25.40,ESE,112,10.5,16.8,97,0.00,,,0.00,Rainwise IP-100,2013-02-20 19:47:00,
2013-02-20 12:52:00,29.1,29.0,25.40,North,360,16.8,23.3,97,0.00,,,0.00,Rainwise IP-100,2013-02-20 19:52:00,
2013-02-20 12:57:00,29.3,29.0,25.39,SE,135,15.4,21.5,97,0.00,,,0.00,Rainwise IP-100,2013-02-20 19:57:00,
2013-02-20 13:02:00,29.6,31.0,25.40,North,360,14.0,19.8,98,0.00,,,0.00,Rainwise IP-100,2013-02-20 20:02:00,
2013-02-20 13:07:00,29.7,31.0,25.39,North,360,6.8,19.8,98,0.00,,,0.00,Rainwise IP-100,2013-02-20 20:07:00,
2013-02-20 13:12:00,29.8,31.0,25.39,North,360,9.8,19.6,98,0.00,,,0.00,Rainwise IP-100,2013-02-20 20:12:00,
2013-02-20 13:17:00,30.0,31.0,25.39,North,360,10.7,20.5,98,0.00,,,0.00,Rainwise IP-100,2013-02-20 20:17:00,
2013-02-20 13:22:00,30.1,31.0,25.38,North,360,11.0,20.5,98,0.00,,,0.00,Rainwise IP-100,2013-02-20 20:22:00,
2013-02-20 13:27:00,30.1,31.0,25.38,East,90,21.5,23.8,98,0.00,,,0.00,Rainwise IP-100,2013-02-20 20:27:00,
2013-02-20 13:32:00,30.1,31.0,25.38,North,360,11.0,21.5,98,0.00,,,0.00,Rainwise IP-100,2013-02-20 20:32:00,
2013-02-20 13:37:00,30.2,31.0,25.38,North,360,17.7,20.3,98,0.00,,,0.00,Rainwise IP-100,2013-02-20 20:37:00,
2013-02-20 13:42:00,30.4,31.0,25.38,North,360,10.0,20.1,98,0.00,,,0.00,Rainwise IP-100,2013-02-20 20:42:00,
2013-02-20 13:47:00,30.5,31.0,25.38,North,360,7.9,18.4,98,0.00,,,0.00,Rainwise IP-100,2013-02-20 20:47:00,
2013-02-20 13:52:00,30.6,31.0,25.38,North,360,20.8,23.6,98,0.00,,,0.00,Rainwise IP-100,2013-02-20 20:52:00,
2013-02-20 13:57:00,30.8,31.0,25.37,North,360,8.9,24.9,98,0.00,,,0.00,Rainwise IP-100,2013-02-20 20:57:00,
2013-02-20 14:02:00,30.8,31.0,25.37,North,360,15.6,24.7,98,0.00,,,0.00,Rainwise IP-100,2013-02-20 21:02:00,
2013-02-20 14:07:00,30.8,31.0,25.37,SSE,157,6.1,22.2,98,0.00,,,0.00,Rainwise IP-100,2013-02-20 21:07:00,
2013-02-20 14:12:00,30.9,31.0,25.36,SSE,157,17.3,25.6,98,0.00,,,0.00,Rainwise IP-100,2013-02-20 21:12:00,
2013-02-20 14:17:00,31.0,31.0,25.36,North,360,16.3,22.9,98,0.00,,,0.00,Rainwise IP-100,2013-02-20 21:17:00,
2013-02-20 14:22:00,31.0,31.0,25.37,North,360,12.6,25.9,99,0.00,,,0.00,Rainwise IP-100,2013-02-20 21:22:00,
2013-02-20 14:27:00,31.0,31.0,25.36,SSE,157,16.6,19.8,99,0.00,,,0.00,Rainwise IP-100,2013-02-20 21:27:00,
2013-02-20 14:32:00,31.1,31.0,25.36,SSE,157,17.0,23.1,99,0.00,,,0.00,Rainwise IP-100,2013-02-20 21:32:00,
2013-02-20 14:37:00,31.1,31.0,25.36,North,360,8.9,22.6,99,0.00,,,0.00,Rainwise IP-100,2013-02-20 21:37:00,
2013-02-20 14:43:00,31.0,31.0,25.37,North,360,11.2,21.7,99,0.00,,,0.00,Rainwise IP-100,2013-02-20 21:43:00,
2013-02-20 14:48:00,31.0,31.0,25.36,SSE,157,15.6,21.0,99,0.00,,,0.00,Rainwise IP-100,2013-02-20 21:48:00,
2013-02-20 14:53:00,31.0,31.0,25.36,North,360,7.5,19.8,99,0.00,,,0.00,Rainwise IP-100,2013-02-20 21:53:00,
2013-02-20 14:58:00,30.9,31.0,25.36,North,360,17.5,20.1,99,0.00,,,0.00,Rainwise IP-100,2013-02-20 21:58:00,
2013-02-20 15:03:00,30.9,31.0,25.36,SSE,157,12.1,21.0,99,0.00,,,0.00,Rainwise IP-100,2013-02-20 22:03:00,
2013-02-20 15:08:00,30.9,31.0,25.36,SSE,157,8.6,19.1,99,0.00,,,0.00,Rainwise IP-100,2013-02-20 22:08:00,
2013-02-20 15:13:00,30.9,31.0,25.36,North,360,10.7,21.7,99,0.00,,,0.00,Rainwise IP-100,2013-02-20 22:13:00,
2013-02-20 15:18:00,30.9,31.0,25.36,SSE,157,13.1,26.6,99,0.00,,,0.00,Rainwise IP-100,2013-02-20 22:18:00,
2013-02-20 15:23:00,30.9,31.0,25.36,SSE,157,9.1,20.3,99,0.00,,,0.00,Rainwise IP-100,2013-02-20 22:23:00,
2013-02-20 15:28:00,31.0,31.0,25.36,North,360,8.9,23.8,99,0.00,,,0.00,Rainwise IP-100,2013-02-20 22:28:00,
2013-02-20 15:33:00,31.0,31.0,25.36,North,360,8.4,21.7,99,0.00,,,0.00,Rainwise IP-100,2013-02-20 22:33:00,
2013-02-20 15:38:00,31.2,31.0,25.36,SSE,157,11.9,20.3,99,0.00,,,0.00,Rainwise IP-100,2013-02-20 22:38:00,
2013-02-20 15:43:00,31.3,31.0,25.36,SSE,157,8.9,17.7,99,0.00,,,0.00,Rainwise IP-100,2013-02-20 22:43:00,
2013-02-20 15:48:00,31.5,32.0,25.36,SSE,157,10.0,21.2,99,0.00,,,0.00,Rainwise IP-100,2013-02-20 22:48:00,
2013-02-20 15:53:00,31.6,32.0,25.36,SSE,157,13.3,19.4,99,0.00,,,0.00,Rainwise IP-100,2013-02-20 22:53:00,
2013-02-20 15:58:00,31.5,32.0,25.36,North,360,11.2,16.8,99,0.00,,,0.00,Rainwise IP-100,2013-02-20 22:58:00,
2013-02-20 16:03:00,31.5,32.0,25.36,SSE,157,15.2,20.3,99,0.00,,,0.00,Rainwise IP-100,2013-02-20 23:03:00,
2013-02-20 16:08:00,31.6,32.0,25.36,SSE,157,10.3,15.2,99,0.00,,,0.00,Rainwise IP-100,2013-02-20 23:08:00,
2013-02-20 16:13:00,31.7,32.0,25.36,SSE,157,5.6,16.3,99,0.00,,,0.00,Rainwise IP-100,2013-02-20 23:13:00,
2013-02-20 16:18:00,31.7,32.0,25.36,North,360,4.9,19.8,99,0.00,,,0.00,Rainwise IP-100,2013-02-20 23:18:00,
2013-02-20 16:23:00,31.8,32.0,25.37,SSE,157,14.9,18.9,99,0.00,,,0.00,Rainwise IP-100,2013-02-20 23:23:00,
2013-02-20 16:28:00,31.9,32.0,25.37,SSE,157,11.2,17.3,99,0.00,,,0.00,Rainwise IP-100,2013-02-20 23:28:00,
2013-02-20 16:33:00,31.9,32.0,25.37,SSE,157,11.0,16.1,99,0.00,,,0.00,Rainwise IP-100,2013-02-20 23:33:00,
2013-02-20 16:38:00,31.9,32.0,25.37,SSE,157,11.0,18.7,99,0.00,,,0.00,Rainwise IP-100,2013-02-20 23:38:00,
2013-02-20 16:43:00,31.9,32.0,25.37,SSE,157,7.7,17.7,99,0.00,,,0.00,Rainwise IP-100,2013-02-20 23:43:00,
2013-02-20 16:48:00,31.9,32.0,25.37,North,360,16.3,16.3,99,0.00,,,0.00,Rainwise IP-100,2013-02-20 23:48:00,
2013-02-20 16:53:00,31.9,32.0,25.37,SSE,157,9.6,19.1,100,0.00,,,0.00,Rainwise IP-100,2013-02-20 23:53:00,
2013-02-20 16:58:00,31.8,32.0,25.37,SSE,157,4.7,22.4,100,0.00,,,0.00,Rainwise IP-100,2013-02-20 23:58:00,
2013-02-20 17:03:00,31.8,32.0,25.38,SSE,157,11.9,21.5,100,0.00,,,0.00,Rainwise IP-100,2013-02-21 00:03:00,
2013-02-20 17:08:00,31.9,32.0,25.37,North,360,15.2,21.9,100,0.00,,,0.00,Rainwise IP-100,2013-02-21 00:08:00,
2013-02-20 17:13:00,31.8,32.0,25.38,SSE,157,6.5,19.1,100,0.00,,,0.00,Rainwise IP-100,2013-02-21 00:13:00,
2013-02-20 17:18:00,31.8,32.0,25.37,SSE,157,15.9,19.1,100,0.00,,,0.00,Rainwise IP-100,2013-02-21 00:18:00,
2013-02-20 17:23:00,31.8,32.0,25.38,North,360,13.1,22.6,100,0.00,,,0.00,Rainwise IP-100,2013-02-21 00:23:00,
2013-02-20 17:28:00,31.8,32.0,25.38,SE,135,11.4,18.2,100,0.00,,,0.00,Rainwise IP-100,2013-02-21 00:28:00,
2013-02-20 17:33:00,31.6,32.0,25.38,SSE,157,12.1,15.4,100,0.00,,,0.00,Rainwise IP-100,2013-02-21 00:33:00,
2013-02-20 17:38:00,31.5,32.0,25.39,SSE,157,8.6,17.5,100,0.00,,,0.00,Rainwise IP-100,2013-02-21 00:38:00,
2013-02-20 17:43:00,31.4,31.0,25.38,North,360,7.9,16.6,100,0.00,,,0.00,Rainwise IP-100,2013-02-21 00:43:00,
2013-02-20 17:48:00,31.4,31.0,25.39,North,360,9.8,19.4,100,0.00,,,0.00,Rainwise IP-100,2013-02-21 00:48:00,
2013-02-20 17:53:00,31.3,31.0,25.39,SE,135,8.9,17.5,100,0.00,,,0.00,Rainwise IP-100,2013-02-21 00:53:00,
2013-02-20 17:58:00,31.3,31.0,25.38,SSE,157,6.5,17.7,100,0.00,,,0.00,Rainwise IP-100,2013-02-21 00:58:00,
2013-02-20 18:03:00,31.2,31.0,25.39,North,360,7.7,18.2,100,0.00,,,0.00,Rainwise IP-100,2013-02-21 01:03:00,
2013-02-20 18:08:00,31.1,31.0,25.38,SSE,157,5.1,18.0,100,0.00,,,0.00,Rainwise IP-100,2013-02-21 01:08:00,
2013-02-20 18:13:00,31.1,31.0,25.39,SE,135,10.0,17.5,100,0.00,,,0.00,Rainwise IP-100,2013-02-21 01:13:00,
2013-02-20 18:18:00,31.0,31.0,25.39,SSE,157,9.8,17.0,100,0.00,,,0.00,Rainwise IP-100,2013-02-21 01:18:00,
2013-02-20 18:23:00,31.0,31.0,25.39,SSE,157,14.0,19.8,100,0.00,,,0.00,Rainwise IP-100,2013-02-21 01:23:00,
2013-02-20 18:28:00,30.9,31.0,25.39,North,360,13.1,18.2,100,0.00,,,0.00,Rainwise IP-100,2013-02-21 01:28:00,
2013-02-20 18:33:00,30.7,31.0,25.38,SSE,157,7.7,22.2,100,0.00,,,0.00,Rainwise IP-100,2013-02-21 01:33:00,
2013-02-20 18:38:00,30.3,31.0,25.39,North,360,14.2,20.5,100,0.00,,,0.00,Rainwise IP-100,2013-02-21 01:38:00,
2013-02-20 18:43:00,29.9,31.0,25.39,North,360,4.9,21.9,100,0.00,,,0.00,Rainwise IP-100,2013-02-21 01:43:00,
2013-02-20 18:48:00,29.6,31.0,25.39,SE,135,12.8,19.6,99,0.00,,,0.00,Rainwise IP-100,2013-02-21 01:48:00,
2013-02-20 18:53:00,29.4,29.0,25.39,SSE,157,7.0,22.6,99,0.00,,,0.00,Rainwise IP-100,2013-02-21 01:53:00,
2013-02-20 18:58:00,29.4,29.0,25.40,North,360,11.0,15.9,99,0.00,,,0.00,Rainwise IP-100,2013-02-21 01:58:00,
2013-02-20 19:03:00,29.4,29.0,25.39,SE,135,21.2,21.5,99,0.00,,,0.00,Rainwise IP-100,2013-02-21 02:03:00,
2013-02-20 19:08:00,29.3,29.0,25.40,North,360,11.2,23.1,99,0.00,,,0.00,Rainwise IP-100,2013-02-21 02:08:00,
2013-02-20 19:13:00,29.4,29.0,25.40,North,360,11.2,19.1,99,0.00,,,0.00,Rainwise IP-100,2013-02-21 02:13:00,
2013-02-20 19:18:00,29.4,29.0,25.39,SE,135,9.8,18.9,99,0.00,,,0.00,Rainwise IP-100,2013-02-21 02:18:00,
2013-02-20 19:23:00,29.5,31.0,25.39,North,360,10.3,21.7,99,0.00,,,0.00,Rainwise IP-100,2013-02-21 02:23:00,
2013-02-20 19:28:00,29.5,31.0,25.39,North,360,10.3,23.1,99,0.00,,,0.00,Rainwise IP-100,2013-02-21 02:28:00,
2013-02-20 19:33:00,29.5,31.0,25.39,SE,135,14.7,19.6,100,0.00,,,0.00,Rainwise IP-100,2013-02-21 02:33:00,
2013-02-20 19:38:00,29.5,31.0,25.39,SSE,157,13.1,21.7,100,0.00,,,0.00,Rainwise IP-100,2013-02-21 02:38:00,
2013-02-20 19:43:00,29.5,31.0,25.38,SSE,157,10.7,25.2,99,0.00,,,0.00,Rainwise IP-100,2013-02-21 02:43:00,
2013-02-20 19:48:00,29.4,29.0,25.38,North,360,17.3,23.6,99,0.00,,,0.00,Rainwise IP-100,2013-02-21 02:48:00,
2013-02-20 19:53:00,29.4,29.0,25.38,SSE,157,14.9,22.9,99,0.00,,,0.00,Rainwise IP-100,2013-02-21 02:53:00,
2013-02-20 19:58:00,29.4,29.0,25.38,SE,135,13.5,20.3,99,0.00,,,0.00,Rainwise IP-100,2013-02-21 02:58:00,
2013-02-20 20:03:00,29.4,29.0,25.38,SSE,157,10.5,21.0,99,0.00,,,0.00,Rainwise IP-100,2013-02-21 03:03:00,
2013-02-20 20:08:00,29.5,31.0,25.38,SE,135,10.7,21.5,99,0.00,,,0.00,Rainwise IP-100,2013-02-21 03:08:00,
2013-02-20 20:13:00,29.4,29.0,25.38,SE,135,7.9,19.8,100,0.00,,,0.00,Rainwise IP-100,2013-02-21 03:13:00,
2013-02-20 20:18:00,29.3,29.0,25.38,ESE,112,6.8,23.8,100,0.00,,,0.00,Rainwise IP-100,2013-02-21 03:18:00,
2013-02-20 20:23:00,29.2,29.0,25.37,SE,135,18.0,18.4,100,0.00,,,0.00,Rainwise IP-100,2013-02-21 03:23:00,
2013-02-20 20:28:00,29.1,29.0,25.37,SE,135,9.3,22.4,99,0.00,,,0.00,Rainwise IP-100,2013-02-21 03:28:00,
2013-02-20 20:33:00,29.0,29.0,25.37,ESE,112,13.1,21.5,99,0.00,,,0.00,Rainwise IP-100,2013-02-21 03:33:00,
2013-02-20 20:38:00,28.9,29.0,25.38,ESE,112,8.6,20.3,99,0.00,,,0.00,Rainwise IP-100,2013-02-21 03:38:00,
2013-02-20 20:43:00,28.9,29.0,25.38,ESE,112,12.1,23.8,99,0.00,,,0.00,Rainwise IP-100,2013-02-21 03:43:00,
2013-02-20 20:48:00,28.9,29.0,25.38,ESE,112,16.1,19.6,99,0.00,,,0.00,Rainwise IP-100,2013-02-21 03:48:00,
2013-02-20 20:53:00,28.9,29.0,25.38,North,360,6.5,21.2,99,0.00,,,0.00,Rainwise IP-100,2013-02-21 03:53:00,
2013-02-20 20:58:00,28.9,29.0,25.39,North,360,4.9,19.8,99,0.00,,,0.00,Rainwise IP-100,2013-02-21 03:58:00,
2013-02-20 21:03:00,29.0,29.0,25.38,SE,135,12.8,17.5,99,0.00,,,0.00,Rainwise IP-100,2013-02-21 04:03:00,
2013-02-20 21:08:00,29.0,29.0,25.39,SSE,157,8.4,20.3,99,0.00,,,0.00,Rainwise IP-100,2013-02-21 04:08:00,
2013-02-20 21:13:00,28.9,29.0,25.39,SSE,157,5.4,23.1,99,0.00,,,0.00,Rainwise IP-100,2013-02-21 04:13:00,
2013-02-20 21:18:00,28.8,29.0,25.38,SE,135,12.1,18.9,99,0.00,,,0.00,Rainwise IP-100,2013-02-21 04:18:00,
2013-02-20 21:23:00,28.7,29.0,25.39,ESE,112,10.3,18.0,99,0.00,,,0.00,Rainwise IP-100,2013-02-21 04:23:00,
2013-02-20 21:28:00,28.6,29.0,25.38,ESE,112,11.7,16.6,99,0.00,,,0.00,Rainwise IP-100,2013-02-21 04:28:00,
2013-02-20 21:33:00,28.5,29.0,25.39,SE,135,5.1,18.0,99,0.00,,,0.00,Rainwise IP-100,2013-02-21 04:33:00,
2013-02-20 21:38:00,28.3,28.0,25.39,SE,135,9.6,16.3,99,0.00,,,0.00,Rainwise IP-100,2013-02-21 04:38:00,
2013-02-20 21:43:00,28.3,28.0,25.38,ESE,112,7.5,16.1,99,0.00,,,0.00,Rainwise IP-100,2013-02-21 04:43:00,
2013-02-20 21:48:00,28.3,28.0,25.39,ESE,112,11.7,14.7,99,0.00,,,0.00,Rainwise IP-100,2013-02-21 04:48:00,
2013-02-20 21:53:00,28.3,28.0,25.39,North,360,13.1,13.1,99,0.00,,,0.00,Rainwise IP-100,2013-02-21 04:53:00,
2013-02-20 21:58:00,28.4,28.0,25.38,ESE,112,6.5,18.7,99,0.00,,,0.00,Rainwise IP-100,2013-02-21 04:58:00,
2013-02-20 22:00:00,28.4,28.0,25.38,SSE,157,6.3,18.7,99,0.00,,,0.00,Rainwise IP-100,2013-02-21 05:00:00,
2013-02-20 22:05:00,28.5,29.0,25.39,SE,135,8.2,18.7,99,0.00,,,0.00,Rainwise IP-100,2013-02-21 05:05:00,
2013-02-20 22:10:00,28.6,29.0,25.39,ESE,112,9.1,22.2,99,0.00,,,0.00,Rainwise IP-100,2013-02-21 05:10:00,
2013-02-20 22:15:00,28.9,29.0,25.39,North,360,6.3,16.1,99,0.00,,,0.00,Rainwise IP-100,2013-02-21 05:15:00,
2013-02-20 22:20:00,28.9,29.0,25.39,ESE,112,11.7,17.5,99,0.00,,,0.00,Rainwise IP-100,2013-02-21 05:20:00,
2013-02-20 22:25:00,28.7,29.0,25.39,SE,135,10.7,21.2,99,0.00,,,0.00,Rainwise IP-100,2013-02-21 05:25:00,
2013-02-20 22:30:00,28.4,28.0,25.39,SSE,157,8.4,18.0,99,0.00,,,0.00,Rainwise IP-100,2013-02-21 05:30:00,
2013-02-20 22:35:00,28.3,28.0,25.38,ESE,112,9.3,19.1,99,0.00,,,0.00,Rainwise IP-100,2013-02-21 05:35:00,
2013-02-20 22:40:00,28.2,28.0,25.38,SE,135,10.0,18.9,99,0.00,,,0.00,Rainwise IP-100,2013-02-21 05:40:00,
2013-02-20 22:45:00,28.1,28.0,25.38,ESE,112,16.8,21.2,99,0.00,,,0.00,Rainwise IP-100,2013-02-21 05:45:00,
2013-02-20 22:50:00,28.1,28.0,25.38,SE,135,8.6,20.1,99,0.00,,,0.00,Rainwise IP-100,2013-02-21 05:50:00,
2013-02-20 22:51:00,28.1,28.0,25.38,SE,135,15.2,18.9,99,0.00,,,0.00,Rainwise IP-100,2013-02-21 05:51:00,
2013-02-20 22:56:00,28.1,28.0,25.38,ESE,112,12.6,18.7,99,0.00,,,0.00,Rainwise IP-100,2013-02-21 05:56:00,
2013-02-20 22:59:00,28.1,28.0,25.38,ESE,112,17.3,19.4,99,0.00,,,0.00,Rainwise IP-100,2013-02-21 05:59:00,
2013-02-20 23:04:00,28.2,28.0,25.38,ESE,112,10.0,20.8,99,0.00,,,0.00,Rainwise IP-100,2013-02-21 06:04:00,
2013-02-20 23:09:00,28.3,28.0,25.38,SE,135,8.4,18.7,99,0.00,,,0.00,Rainwise IP-100,2013-02-21 06:09:00,
2013-02-20 23:14:00,28.6,29.0,25.39,SE,135,8.2,19.1,99,0.00,,,0.00,Rainwise IP-100,2013-02-21 06:14:00,
2013-02-20 23:19:00,28.7,29.0,25.39,SE,135,13.1,22.6,99,0.00,,,0.00,Rainwise IP-100,2013-02-21 06:19:00,
2013-02-20 23:24:00,28.7,29.0,25.39,SE,135,13.5,21.5,99,0.00,,,0.00,Rainwise IP-100,2013-02-21 06:24:00,
2013-02-20 23:29:00,28.7,29.0,25.39,SE,135,8.4,23.3,99,0.00,,,0.00,Rainwise IP-100,2013-02-21 06:29:00,
2013-02-20 23:34:00,28.7,29.0,25.38,SSE,157,14.5,22.4,99,0.00,,,0.00,Rainwise IP-100,2013-02-21 06:34:00,
2013-02-20 23:39:00,28.6,29.0,25.38,SE,135,8.6,18.7,99,0.00,,,0.00,Rainwise IP-100,2013-02-21 06:39:00,
2013-02-20 23:44:00,28.3,28.0,25.38,South,180,7.5,14.5,99,0.00,,,0.00,Rainwise IP-100,2013-02-21 06:44:00,
2013-02-20 23:49:00,28.1,28.0,25.38,ESE,112,11.2,18.0,99,0.00,,,0.00,Rainwise IP-100,2013-02-21 06:49:00,
2013-02-20 23:54:00,28.3,28.0,25.38,SE,135,12.4,21.5,99,0.00,,,0.00,Rainwise IP-100,2013-02-21 06:54:00,
2013-02-20 23:59:00,28.3,28.0,25.38,SSE,157,12.1,21.7,100,0.00,,,0.00,Rainwise IP-100,2013-02-21 06:59:00,